This is the latest recevied weather packets stored in our database for station/object W5CRT. If no packets are shown the sender has not sent any weather packets the latest 1 day(s).
| Time | Temp. | Humidity | Pressure | Rain* | Wind** | Luminosity | Snow |
|---|---|---|---|---|---|---|---|
| 1777989546 | 22.78° C | 79% | 1003.2 hPa | 0 mm | 4.92 m/s, 219° | 225 W/m² | - |
| 1777989243 | 22.78° C | 79% | 1003.2 hPa | 0 mm | 3.58 m/s, 172° | 187 W/m² | - |
| 1777988939 | 22.78° C | 80% | 1003 hPa | 0 mm | 4.02 m/s, 160° | 152 W/m² | - |
| 1777988636 | 22.78° C | 80% | 1003.2 hPa | 0 mm | 2.68 m/s, 192° | 166 W/m² | - |
| 1777988333 | 22.78° C | 80% | 1003.1 hPa | 0 mm | 2.24 m/s, 159° | 156 W/m² | - |
| 1777988030 | 22.78° C | 80% | 1003.1 hPa | 0 mm | 1.34 m/s, 113° | 171 W/m² | - |
| 1777987725 | 22.78° C | 80% | 1003.2 hPa | 0 mm | 2.68 m/s, 187° | 134 W/m² | - |
| 1777987423 | 22.78° C | 80% | 1003.3 hPa | 0 mm | 1.34 m/s, 156° | 142 W/m² | - |
| 1777987119 | 22.78° C | 80% | 1003.1 hPa | 0 mm | 2.68 m/s, 164° | 144 W/m² | - |
| 1777986817 | 22.78° C | 81% | 1003.2 hPa | 0 mm | 1.34 m/s, 198° | 93 W/m² | - |
| 1777986515 | 22.22° C | 81% | 1003.3 hPa | 0 mm | 2.68 m/s, 168° | 73 W/m² | - |
| 1777986212 | 22.22° C | 81% | 1003.1 hPa | 0 mm | 1.34 m/s, 220° | 62 W/m² | - |
| 1777985909 | 22.22° C | 81% | 1003.1 hPa | 0 mm | 1.34 m/s, 182° | 51 W/m² | - |
| 1777985607 | 22.22° C | 81% | 1002.9 hPa | 0 mm | 2.24 m/s, 143° | 19 W/m² | - |
| 1777985303 | 22.22° C | 81% | 1002.8 hPa | 0 mm | 2.24 m/s, 155° | 59 W/m² | - |
| 1777985000 | 22.22° C | 81% | 1002.8 hPa | 0 mm | 0.89 m/s, 223° | 58 W/m² | - |
| 1777984696 | 22.22° C | 82% | 1002.7 hPa | 0 mm | 2.68 m/s, 149° | 51 W/m² | - |
| 1777984393 | 22.22° C | 82% | 1002.5 hPa | 0 mm | 3.58 m/s, 205° | 38 W/m² | - |
| 1777984089 | 22.22° C | 82% | 1002.6 hPa | 0 mm | 0.45 m/s, 146° | 23 W/m² | - |
| 1777983786 | 22.22° C | 82% | 1002.7 hPa | 0 mm | 1.34 m/s, 215° | 27 W/m² | - |
| 1777983482 | 22.22° C | 82% | 1002.5 hPa | 0 mm | 5.81 m/s, 155° | 24 W/m² | - |
| 1777983180 | 21.67° C | 82% | 1002.4 hPa | 0 mm | 1.34 m/s, 166° | 19 W/m² | - |
| 1777982876 | 21.67° C | 82% | 1002.6 hPa | 0 mm | 2.68 m/s, 161° | 16 W/m² | - |
| 1777982572 | 21.67° C | 82% | 1002.4 hPa | 0 mm | 2.24 m/s, 163° | 13 W/m² | - |
| 1777982271 | 21.67° C | 82% | 1002.3 hPa | 0 mm | 1.34 m/s, 192° | 10 W/m² | - |
* Rain latest hour (hover to see other rain measurements)
** Current wind speed in m/s (hover to see current wind gust speed)